Location: Stamford Observatory
(41.1241°N, 73.5498°W)
Time: 13:36:06
(UTC-04:00)

Daily predictions for brighter satellites

Satellite Brightness Start Highest point End
(mag) Time Altitude Azimuth Time Altitude Azimuth Time Altitude Azimuth
CSL-04 Rocket 4.2 18:23:31 10° S 18:28:49 66° WSW 18:34:06 10° NNW
Cosmos 2322 Rocket 3.5 18:25:01 10° NW 18:30:21 46° WSW 18:35:41 10° S
COSMOS 2428 3.4 18:26:02 10° N 18:31:12 34° ENE 18:36:20 10° ESE
Cosmos 2218 Rocket 4.1 18:27:04 10° S 18:33:13 87° W 18:39:24 10° N
SPOT 3 Rocket 4.0 18:28:31 10° SE 18:33:17 39° ENE 18:38:07 10° N
Cosmos 2333 Rocket 3.5 18:29:37 10° N 18:33:53 21° NE 18:38:08 10° E
Cosmos 1833 4.3 18:29:32 10° SSW 18:35:14 90° ESE 18:40:54 10° NNE
Cosmos 1452 Rocket 3.5 18:31:03 10° NNW 18:36:18 64° ENE 18:41:30 10° SSE
Cosmos 2219 4.0 18:31:36 10° SSE 18:36:34 31° ESE 18:41:33 10° NE
Cosmos 1339 Rocket 4.5 18:30:43 10° N 18:37:04 74° E 18:43:16 10° SSE
Aureole 2 Rocket 4.2 18:36:31 10° NNE 18:39:18 18° ENE 18:42:07 10° ESE
FENGYUN 3A 4.4 18:34:56 10° SE 18:39:39 32° ENE 18:44:24 10° N
CORIOLIS 4.3 18:34:22 10° SSE 18:39:45 83° WSW 18:45:12 10° NNW
MTI 3.7 18:37:39 10° NNE 18:40:52 73° ESE 18:44:02 10° S
Cosmos 1727 Rocket 4.0 18:35:18 10° N 18:41:41 77° E 18:48:00 10° S
CZ-4 R/B 1.8 18:40:01 10° S 18:44:12 71° W 18:48:20 10° NNW
Abrixas 2.7 18:42:42 10° SSW 18:44:39 31° SE 18:46:07 14° E
Iridium 4 Rocket 4.3 18:40:44 10° SSE 18:45:50 37° E 18:51:10 10° NNE
Delta 2 Rocket 4.2 18:42:15 10° WSW 18:45:56 35° S 18:49:16 10° ESE
Cosmos 2098 Rocket 4.1 18:43:47 10° SSE 18:47:55 33° E 18:53:00 10° NNE
Cosmos 2221 2.9 18:43:56 10° SSE 18:48:00 42° E 18:52:07 10° NNE
GP-B 3.1 18:44:01 10° N 18:48:29 87° E 18:52:55 10° S
SKYMED 2 3.6 18:44:37 10° NNE 18:48:55 56° E 18:53:10 10° S
MONITOR-E 4.3 18:46:32 10° SSE 18:49:31 49° ENE 18:52:31 10° N
CZ-4 R/B 4.4 18:45:47 10° SSE 18:49:55 82° ENE 18:54:05 10° N
Cosmos 1743 Rocket 4.0 18:45:48 10° NNW 18:50:10 68° W 18:54:33 10° S
Aureole 2 4.2 18:47:56 10° NNW 18:51:04 69° ENE 18:54:36 10° SSE
Cosmos 44 3.1 18:49:07 10° SSW 18:53:23 57° ESE 18:57:39 10° NE
Cosmos 921 Rocket 3.0 18:49:24 10° NNW 18:53:51 80° ENE 18:58:11 10° SSE
ERS-2 3.1 18:53:01 10° S 18:56:38 53° W 19:00:16 10° NNW
Cosmos 2322 3.8 18:52:54 10° NNW 18:58:40 84° WSW 19:04:22 10° SSE
Cosmos 1842 Rocket 4.2 18:54:35 10° SSW 18:58:59 61° W 19:03:25 10° N
EO 1 Del DPAF 3.3 18:55:08 10° NNE 18:59:00 86° WNW 19:02:51 10° SSW
Abrixas rocket 4.0 18:58:33 10° NW 19:01:12 22° N 19:03:10 14° NE
SL-8 R/B 4.4 19:00:30 10° W 19:05:10 49° NNW 19:09:08 14° NE
Cosmos 1726 2.6 19:02:34 10° SSE 19:06:00 37° E 19:09:26 10° NNE
Cosmos 2219 Rocket 2.6 19:02:57 10° N 19:08:16 41° ENE 19:13:31 10° SE
Cosmos 1315 Rocket 3.0 19:05:01 10° NNW 19:09:06 79° W 19:13:12 10° S
Cosmos 1500 Rocket 4.5 19:06:26 10° NNW 19:10:39 52° W 19:14:50 10° S
Cosmos 1048 Rocket 3.9 19:07:10 10° S 19:12:16 75° ESE 19:17:24 10° NNE
Cosmos 158 Rocket 3.9 19:08:21 10° SSW 19:13:25 88° WNW 19:18:39 10° NNE
APEX 2.8 19:12:32 10° SSW 19:15:41 68° WNW 19:18:22 11° NNE
NOAA 12 4.0 19:10:26 10° SSE 19:15:42 73° ENE 19:21:02 10° N
DELTA 2 R/B (1) 4.3 19:11:07 10° W 19:16:29 48° SSW 19:21:07 14° SE
METEOR-M 4.4 19:12:18 10° S 19:17:38 72° WSW 19:23:00 10° NNW
Cosmos 1420 Rocket 4.3 19:13:26 10° NNW 19:18:44 73° WSW 19:23:59 10° S
FREGAT/IRIS 3.7 19:24:03 28° NE 19:24:03 28° NE 19:25:58 10° N
NOSS 0 Rocket 4.2 19:17:38 10° NNW 19:23:31 44° ENE 19:27:35 19° ESE
CZ-4C R/B 2.0 19:18:27 10° SSW 19:23:35 80° ESE 19:29:29 10° NE
Cosmos 44 Rocket 3.4 19:21:04 10° SW 19:25:45 72° WNW 19:30:28 10° NNE
SJ-6B 3.5 19:30:48 31° NE 19:30:48 31° NE 19:33:39 10° N
Resurs 01 Rocket 3.6 19:33:45 15° NNE 19:33:45 15° NNE 19:34:52 10° NNE
Thor Agena Rocket 3.4 19:29:25 10° NNE 19:34:28 62° ESE 19:39:27 10° S
Cosmos 2333 4.3 19:28:48 10° NNW 19:34:33 81° WSW 19:40:18 10° SSE
Sich 1 3.0 19:31:33 10° N 19:35:53 59° E 19:40:14 10° SSE
COSMO-SKYMED 1 3.9 19:32:48 10° N 19:36:54 41° WNW 19:40:59 10° SW
PSLV R/B 4.2 19:34:12 10° SW 19:36:41 30° S 19:36:41 30° S
Cosmos 1535 Rocket 4.4 19:35:56 10° S 19:42:04 86° E 19:48:12 10° N
In-Cosmos 22 Rocket 4.3 19:37:06 10° N 19:42:45 55° ENE 19:48:27 10° SSE
Cosmos 2237 Rocket 2.5 19:38:35 10° NNW 19:44:01 43° ENE 19:45:24 37° E
H-2A R/B 2.6 19:43:54 32° SSE 19:45:37 71° ENE 19:49:32 10° N
Atlas Centaur 2 4.1 19:43:14 10° SW 19:45:41 14° SSW 19:48:24 10° SSE
USA 267 3.9 19:45:00 31° ESE 19:46:13 33° SE 19:51:59 10° S
Cosmos 1331 Rocket 4.1 19:42:28 10° N 19:47:35 52° ENE 19:48:57 41° ESE
Gbstr 26 Del rocket 3.6 19:42:33 10° NW 19:47:41 88° SW 19:50:40 32° SE
Cosmos 1805 Rocket 4.0 19:45:18 10° NNW 19:49:39 62° W 19:54:00 10° S
Cosmos 2227 Rocket 2.4 19:45:37 10° S 19:50:59 46° ESE 19:52:07 41° ENE
SL-16 R/B 3.5 19:51:13 10° N 19:54:46 23° NE 19:54:46 23° NE
Cosmos 1666 Rocket 3.5 19:54:34 10° N 19:58:55 79° W 20:02:43 13° S
ALOS 3.6 19:57:38 10° SSW 20:02:01 40° W 20:06:25 10° NNW
Cosmos 1300 3.2 19:59:36 10° SSW 20:03:22 59° W 20:07:11 10° N
Cosmos 1633 Rocket 3.0 20:00:05 10° N 20:04:32 84° W 20:06:13 38° S
Cosmos 1980 3.5 20:02:35 10° NNW 20:08:15 72° ENE 20:09:17 58° SE
Meteor 2-3 Rocket 4.1 20:03:05 10° N 20:07:50 46° NE 20:07:50 46° NE
Cosmos 1934 Rocket 4.4 20:06:05 10° SSW 20:12:23 66° W 20:18:45 10° N
Aureole 2 Rocket 4.2 20:10:47 10° NW 20:14:26 36° WSW 20:16:42 20° SSW
COSMOS 2428 4.2 20:10:19 10° NW 20:15:25 35° WSW 20:20:30 10° SSW
Cosmos 2333 Rocket 2.5 20:12:56 10° NNW 20:18:39 66° WSW 20:21:36 29° S
USA 234 4.3 20:20:48 28° NE 20:21:47 29° NNE 20:27:14 10° NW
BREEZE-M DEB (TANK) 3.3 20:11:32 10° WNW 20:25:49 83° NNE 20:26:19 74° E
Cosmos 2297 Rocket 2.5 20:22:42 10° SSW 20:27:03 55° S 20:27:03 55° S
Cosmos 494 Rocket 4.2 20:24:12 10° SSW 20:29:16 64° WNW 20:30:45 44° N
USA 32 4.3 20:32:07 10° N 20:36:35 62° NW 20:36:35 62° NW
Cosmos 2082 4.1 20:32:04 10° SSW 20:36:17 52° SSW 20:36:17 52° SSW
BREEZE-M DEB (TANK) 3.7 20:35:24 10° WNW 20:41:01 45° NW 20:41:01 45° NW
Cosmos 2219 Rocket 4.0 20:47:18 10° NW 20:51:58 28° WSW 20:55:32 15° SSW
Resurs 01 Rocket 4.3 21:11:19 14° NNW 21:11:19 14° NNW 21:12:04 10° NNW
CZ-4C R/B 4.3 21:08:44 10° W 21:12:56 22° NNW 21:15:06 18° N
Cosmos 2237 Rocket 4.0 21:23:07 10° NW 21:27:17 27° W 21:27:17 27° W
USA 267 4.4 21:32:24 35° WSW 21:32:24 35° WSW 21:35:59 10° WSW
Cosmos 2227 Rocket 4.1 21:30:29 10° WSW 21:34:04 25° WNW 21:34:04 25° WNW
SL-16 R/B 4.3 21:34:43 10° NNW 21:36:39 22° NW 21:36:39 22° NW
CZ-3A R/B 4.4 21:46:18 10° NW 21:56:32 55° NW 21:56:32 55° NW
